Location: La Gautrais
(48.1977°N, 1.2646°W)
Time: 03:15:43
(UTC+00:00)

Daily predictions for brighter satellites

Satellite Brightness Start Highest point End
(mag) Time Altitude Azimuth Time Altitude Azimuth Time Altitude Azimuth
ATLAS CENTAUR R/B 3.7 00:07:30 16° SW 00:12:09 90° SE 00:27:00 10° NE
Cosmos 1825 4.0 00:13:02 17° ESE 00:14:12 20° E 00:16:59 10° NE
Cosmos 1812 Rocket 3.7 00:13:41 10° NNW 00:17:59 60° W 00:19:25 39° SSW
Cosmos 990 Rocket 4.4 00:14:11 10° NNW 00:19:20 59° ENE 00:22:37 22° SE
Cosmos 1408 3.5 00:19:18 32° SE 00:20:09 38° E 00:23:36 10° NNE
SL-16 R/B 2.2 00:19:56 27° SSW 00:23:09 80° WNW 00:28:51 10° NNE
Cosmos 405 Rocket 4.0 00:23:36 25° ESE 00:24:32 28° E 00:27:44 10° NNE
Cosmos 2221 4.3 00:21:55 10° NNE 00:25:30 25° ENE 00:28:24 13° ESE
USA 229 DEB 3.8 00:22:36 30° S 00:25:41 55° ESE 00:32:18 10° NE
USA 229 3.8 00:22:43 30° S 00:25:47 54° ESE 00:32:24 10° NE
X-37B 3.0 00:28:47 14° ESE 00:28:47 14° ESE 00:29:18 10° E
Cosmos 2237 Rocket 3.6 00:21:22 10° WSW 00:26:24 33° NW 00:31:28 10° NNE
Cosmos 1898 Rocket 3.9 00:27:26 10° NNW 00:32:40 61° ENE 00:36:10 20° SE
Cosmos 1937 Rocket 4.4 00:27:43 10° NNW 00:32:53 47° ENE 00:37:19 14° SE
NOSS 8 (F) 4.1 00:33:59 61° SE 00:34:07 61° SE 00:37:03 10° NE
NOSS 3-1 (C) 3.2 00:31:10 27° SW 00:34:19 88° SE 00:40:43 10° NE
Cosmos 2369 Rocket 2.3 00:29:18 10° NNW 00:35:04 79° ENE 00:38:58 21° SSE
Cosmos 1356 3.6 00:37:29 48° SE 00:38:06 58° E 00:41:27 10° NNE
CREW DRAGON DEMO-1 DEB 4.4 00:40:05 19° E 00:40:05 19° E 00:41:01 10° ENE
SJ 16-02 2.0 00:34:47 10° NW 00:38:54 40° WSW 00:40:01 34° SW
GP-B 3.7 00:35:52 10° N 00:40:08 46° W 00:41:51 30° SW
NOSS 2-3 (E) 3.5 00:42:31 34° SW 00:44:19 90° SE 00:49:15 10° NE
EP 2 4.4 00:44:03 70° SW 00:44:22 89° SE 00:47:25 10° NE
NOSS 3-1 (A) 3.3 00:42:41 31° SSW 00:45:18 65° SE 00:51:32 10° NE
USA 215 3.8 00:40:27 10° NE 00:46:52 60° NNW 00:53:16 10° W
Cosmos 1825 Rocket 3.6 00:45:41 37° SSW 00:47:26 77° W 00:51:54 10° N
Cosmos 2263 4.3 00:43:00 10° NNW 00:48:43 75° ENE 00:53:06 17° SE
ATLAS 5 CENTAUR R/B 3.6 00:48:04 11° ESE 00:48:53 12° ESE 00:50:30 10° E
CZ-4 R/B 4.3 00:46:53 10° NNE 00:51:25 48° E 00:53:33 28° SSE
Cosmos 2142 Rocket 4.5 00:47:03 10° NNW 00:53:10 70° W 00:56:33 28° S
Cosmos 1932 4.4 00:47:39 10° NW 00:53:56 84° NE 01:00:03 10° SE
CZ-3B R/B 4.1 00:43:05 10° W 00:55:51 47° N 00:59:33 10° ENE
NOSS 8 (H) 4.1 01:00:24 58° S 01:00:46 66° SE 01:03:43 10° NE
Cosmos 1606 4.2 00:58:12 10° N 01:01:42 32° ENE 01:04:12 16° SE
Helios 1A 3.1 01:00:06 28° SSE 01:02:12 75° ENE 01:06:25 10° N
Cosmos 468 Rocket 3.9 01:00:57 31° SSW 01:03:30 86° ESE 01:08:47 10° NNE
SL-16 R/B 3.3 01:00:13 10° SE 01:06:09 51° ENE 01:12:06 10° N
USA 305 4.1 01:10:32 24° SSE 01:11:11 25° SE 01:14:41 10° ENE
USA 290 4.4 01:11:15 15° ESE 01:12:11 17° ESE 01:14:19 10° ENE
Cosmos 1953 Rocket 3.7 01:10:29 32° SSW 01:12:21 64° W 01:16:45 10° N
Lacrosse 4 Rocket 2.8 01:10:05 10° NNW 01:13:56 36° NE 01:17:41 10° ESE
Cosmos 2098 Rocket 3.6 01:15:08 24° S 01:18:18 64° E 01:22:41 10° NNE
Cosmos 1763 Rocket 3.5 01:15:44 28° SSW 01:18:28 74° WNW 01:23:37 10° NNE
BREEZE-M R/B 3.8 01:18:12 23° SSE 01:18:42 24° SE 01:22:08 10° E
Cosmos 1869 4.4 01:16:07 10° NNW 01:19:46 32° W 01:21:00 26° SW
Cosmos 1437 Rocket 2.6 01:16:54 10° NNW 01:20:47 74° W 01:22:19 34° S
Resurs 1-4 Rocket 2.8 01:15:50 10° NNE 01:20:57 46° E 01:24:24 20° SSE
USA 267 4.0 01:19:19 24° SSW 01:21:50 31° SW 01:27:32 10° WNW
Cosmos 1892 3.9 01:21:02 24° WSW 01:22:33 33° WNW 01:26:05 10° N
SL-4 R/B 2.7 01:20:50 10° WNW 01:24:32 48° N 01:28:00 10° ENE
NOSS 2-3 (D) 4.3 01:22:26 18° WSW 01:25:25 50° NW 01:30:20 10° NE
Cosmos 1943 Rocket 3.4 01:23:35 10° NW 01:27:50 23° WSW 01:29:31 20° SW
Cosmos 1842 Rocket 3.5 01:26:33 10° NNW 01:30:54 78° W 01:33:14 27° S
NOSS 2-2 (D) 4.4 01:30:21 22° SSE 01:31:20 26° ESE 01:34:24 10° ENE
NPP 4.4 01:26:56 10° NNE 01:32:08 46° E 01:35:57 18° SSE
ADEOS II 3.6 01:27:55 10° NE 01:32:26 28° E 01:36:49 10° SSE
USA 306 3.7 01:32:05 28° S 01:33:27 35° SE 01:37:20 10° ENE
Lacrosse 5 rocket 3.6 01:30:32 10° NW 01:33:31 24° NNE 01:36:31 10° ENE
Meteor 2-8 Rocket 4.4 01:28:10 10° N 01:34:20 84° W 01:38:53 19° S
Cosmos 921 Rocket 3.2 01:32:38 27° S 01:34:44 59° ESE 01:38:52 10° NNE
Exosat Rocket 4.0 01:30:27 21° SW 01:34:45 67° WNW 01:39:57 10° NNE
FALCON 9 DEB 3.0 01:31:53 10° WNW 01:35:18 89° S 01:38:41 10° ESE
Cosmos 1943 3.2 01:33:25 24° SSW 01:36:55 82° WNW 01:42:36 10° NNE
CZ-2D R/B 2.3 01:34:33 10° NNE 01:39:44 63° ESE 01:43:15 21° S
MOZ.5/SAFIR/RUBIN 5/SL-8 3.9 01:38:05 25° S 01:40:43 58° W 01:45:27 10° NNW
Cosmos 1603 3.8 01:41:52 22° SW 01:45:38 70° WNW 01:51:19 10° NNE
Cosmos 2151 3.8 01:44:56 17° SSE 01:47:51 45° E 01:51:52 10° NNE
Cosmos 1825 3.2 01:47:48 22° WSW 01:49:27 33° WNW 01:52:54 10° N
AQUA 4.4 01:47:05 10° NNE 01:51:47 53° E 01:55:17 17° S
Cosmos 1076 Rocket 3.4 01:49:45 24° S 01:52:15 88° E 01:56:31 10° N
Cosmos 1437 2.2 01:51:56 10° NNW 01:54:44 83° W 01:55:52 32° S
Cosmos 540 Rocket 3.7 01:55:00 21° SW 01:58:20 61° WNW 02:03:25 10° NNE
Cosmos 1242 Rocket 2.9 01:55:00 10° NNW 01:58:27 46° W 02:00:05 26° SSW
Cosmos 405 Rocket 4.3 01:58:43 16° WSW 02:00:30 22° WNW 02:03:29 10° NNW
DELTA 2 R/B (1) 4.3 01:57:41 20° SW 02:00:41 33° S 02:05:37 10° ESE
X-37B 0.9 02:01:04 23° WSW 02:02:41 43° S 02:05:43 10° ESE
Cosmos 2058 3.9 02:00:33 20° SW 02:02:43 34° WNW 02:06:29 10° N
Cosmos 2221 3.4 01:59:14 10° NNW 02:03:07 34° W 02:05:12 22° SW
BREEZE-M DEB (TANK) 1.5 02:02:28 10° W 02:05:16 71° N 02:07:32 10° E
IRS-1D 4.5 02:01:40 10° NNE 02:06:31 41° E 02:11:14 10° SSE
Cosmos 841 Rocket 3.7 02:03:07 20° SW 02:06:39 60° WNW 02:11:46 10° NNE
SL-16 R/B 4.3 02:04:12 10° W 02:08:12 19° NW 02:12:13 10° N
Cosmos 1656 Rocket 4.5 02:03:11 10° NW 02:08:14 33° WSW 02:11:35 18° SSW
Cosmos 1553 Rocket 4.4 02:03:34 10° N 02:09:52 64° ENE 02:16:00 10° SSE
NOSS 2-2 (E) 3.0 02:08:02 24° SW 02:10:00 85° SE 02:13:51 10° NE
Cosmos 2292 Rocket 3.8 02:09:53 14° SSE 02:12:04 37° E 02:14:52 10° NNE
CREW DRAGON DEMO-1 DEB 3.6 02:10:06 11° W 02:12:21 38° N 02:14:41 10° ENE
FALCON 9 DEB 3.5 02:11:07 10° WNW 02:14:14 57° NNE 02:17:19 10° ESE
Cosmos 1782 3.7 02:12:35 10° N 02:16:29 47° ENE 02:20:21 10° SSE
USA 307 3.0 02:14:11 20° SW 02:17:02 65° SE 02:21:15 10° ENE
Cosmos 1271 Rocket 4.4 02:14:54 10° N 02:18:19 32° ENE 02:21:43 10° SE
Cosmos 2369 Rocket 3.7 02:14:35 10° WNW 02:18:24 19° W 02:20:42 15° SW
USA 281 3.8 02:12:21 10° SE 02:18:46 60° ENE 02:25:13 10° NNW
Cosmos 2026 Rocket 4.1 02:16:00 16° SSW 02:21:13 78° W 02:27:36 10° N
NOSS 2-2 (C) 3.0 02:21:26 20° SW 02:23:41 89° SE 02:27:28 10° NE
Aureole 3 Rocket 3.8 02:21:08 10° NNW 02:24:50 40° W 02:28:38 15° SSW
CZ-4C R/B 4.4 02:22:34 10° SE 02:25:47 38° ENE 02:29:03 10° N
ERBS 4.0 02:24:39 14° S 02:26:25 20° SE 02:28:54 10° E
Helios 1B rocket 2.7 02:23:24 10° N 02:27:25 57° WNW 02:30:26 17° SSW
Cosmos 1633 3.3 02:27:25 18° SW 02:29:32 36° WNW 02:32:50 10° N
Cosmos 1328 Rocket 4.5 02:26:13 10° N 02:30:28 48° ENE 02:34:42 10° SSE
FALCON 9 DEB 2.8 02:28:07 10° WNW 02:31:12 89° SSW 02:34:17 10° ESE
SL-19 R/B 4.2 02:26:48 10° NNE 02:32:04 78° WNW 02:36:51 14° SSW
ATLAS 5 CENTAUR R/B 1.4 02:29:34 17° SW 02:32:36 82° NW 02:37:07 10° NE
USA 308 2.9 02:29:31 15° SW 02:32:57 80° SSE 02:37:13 10° ENE
Cosmos 2298 Rocket 4.0 02:27:55 10° NNW 02:33:14 72° WSW 02:38:32 10° SSE
SeaSat 1 3.8 02:31:42 10° NE 02:36:07 32° ESE 02:40:30 10° S
Cosmos 1814 Rocket 4.5 02:32:04 15° SW 02:36:15 51° WNW 02:41:18 10° NNE
Cosmos 1606 4.3 02:34:16 10° NW 02:37:11 21° W 02:39:10 14° SW
FALCON 9 DEB 2.9 02:34:57 10° WNW 02:38:05 83° NNE 02:41:11 10° ESE
FALCON 9 DEB 2.7 02:38:22 10° WNW 02:41:29 80° SSW 02:44:33 10° ESE
ADEOS Rocket 3.4 02:34:16 10° S 02:41:31 66° WSW 02:48:06 10° NNW
Cosmos 1933 3.7 02:39:45 10° NNW 02:43:43 49° W 02:47:30 11° SSW
IRIDIUM 104 4.3 02:38:56 10° N 02:44:10 78° W 02:49:23 10° S
Cosmos 2150 Rocket 4.0 02:39:38 10° NNW 02:44:46 62° WSW 02:49:56 10° S
USA 290 3.4 02:44:01 14° WSW 02:46:22 31° WNW 02:49:18 10° N
SL-16 R/B 3.4 02:44:57 12° SSW 02:49:59 32° W 02:55:28 10° NNW
Meteor 1-28 Rocket 3.3 02:46:18 10° S 02:50:04 62° W 02:53:52 10° NNW
USA 305 3.0 02:46:34 10° WSW 02:50:47 78° NNW 02:55:03 10° ENE
DELTA 2 DEB (DPAF) 4.2 02:46:41 10° S 02:51:05 61° WSW 02:55:29 10° NNW
Lacrosse 4 Rocket 2.3 02:49:00 10° NW 02:52:27 27° WSW 02:55:53 10° S
Cosmos 1125 Rocket 3.5 02:47:28 10° NNW 02:52:41 64° WSW 02:57:53 10° S
IRIDIUM 114 4.4 02:48:07 10° N 02:53:19 65° W 02:58:28 10° S
Cosmos 1151 Rocket 2.9 02:49:54 10° NNW 02:54:10 77° W 02:58:25 10° S
Cosmos 2266 Rocket 4.3 02:50:55 10° S 02:56:57 66° E 03:02:57 10° NNE
Meteor 1-29 3.6 02:54:17 10° N 02:57:33 42° WNW 03:00:31 12° SW
ARIANE 5 R/B 3.4 02:55:20 10° NNE 03:00:07 45° E 03:04:55 10° S
OE (NEXTSAT) 4.4 02:56:56 10° W 03:00:21 58° S 03:03:44 10° ESE
Resurs 1-4 Rocket 3.3 02:56:01 10° N 03:00:35 30° WNW 03:05:08 10° WSW
CZ-4C R/B 3.0 02:57:05 10° S 03:01:35 39° ESE 03:06:55 10° NE
Cosmos 1515 Rocket 4.3 02:57:16 10° N 03:01:38 58° ENE 03:06:01 10° SSE
Cosmos 1766 Rocket 3.6 02:59:29 10° SSW 03:03:55 76° W 03:08:26 10° N
SL-4 R/B 1.9 03:00:44 10° WNW 03:04:22 72° NNE 03:07:49 10° ESE
Landsat 4 4.3 03:01:06 10° N 03:04:43 43° WNW 03:08:17 10° SW
Cosmos 1408 Rocket 4.1 03:02:12 10° S 03:06:35 61° E 03:11:00 10° NNE
USA 238 DEB 4.3 03:01:07 10° NW 03:08:19 69° NE 03:15:51 10° SE
USA 238 4.3 03:01:14 10° NW 03:08:25 69° NE 03:15:58 10° SE
CENTAUR R/B 3.6 03:00:51 10° NW 03:08:49 70° NE 03:17:40 10° SE
ADEOS II 2.6 03:07:17 10° N 03:12:19 46° WNW 03:17:18 10° SW
Lacrosse 5 rocket 1.3 03:09:27 10° NW 03:13:04 74° NE 03:16:46 10° ESE
USA 306 3.3 03:09:02 10° WSW 03:13:15 62° NNW 03:17:28 10° ENE
Cosmos 1862 3.6 03:09:29 10° S 03:13:30 72° E 03:17:33 10° NNE
Okean 3 Rocket 3.7 03:10:29 10° SSW 03:14:49 61° WNW 03:19:10 10° N
CZ-2D R/B 3.7 03:15:26 10° N 03:19:21 22° WNW 03:23:16 10° WSW
Meteor 2-3 Rocket 4.3 03:14:11 10° SW 03:19:28 42° WNW 03:24:46 10° N
ASTEX 1 3.6 03:19:57 10° S 03:24:48 55° W 03:29:39 10° NNW
Cosmos 1655 Rocket 4.1 03:18:43 10° SSW 03:24:55 71° W 03:31:11 10° N
IDEFIX/ARIANE 42P 2.8 03:21:31 10° N 03:26:41 61° WNW 03:31:49 10° SSW
